Voltar ao catálogo

STARLINK-36153

AtivoComunicaçõesVLEO
NORAD 66934·PAYLOAD·🇺🇸 United States

Lançado Dec 7, 2025 de Vandenberg Space Force Base

Loading…

Próximas Passagens (próximas 24 horas)

TLE

AtualizadoSource: CelesTrak SupGP

Época: Sep 15, 2026, 02:48 UTC

1 66934C 25286K   26258.11715278 -.00085509  00000+0 -25257-2 0  2585
2 66934  53.1591 195.0748 0001302  89.5264  83.4026 15.34441489    15

Acompanhe STARLINK-36153 em tempo real com AllMySat

Download on the App Store